Change the Weather History Date:

Wednesday, November 7, 2012

  Actual Average Record
Temperature  
Mean Temperature 47 °F -  
Max Temperature 51 °F 45 °F 57 °F (2006)
Min Temperature 43 °F 36 °F 33 °F (2001)
Degree Days  
Heating Degree Days 18    
Moisture  
Dew Point 44 °F    
Average Humidity 87    
Maximum Humidity 100    
Minimum Humidity 69    
Precipitation  
Precipitation 0.01 in - - ()
Sea Level Pressure  
Sea Level Pressure 30.26 in    
Wind  
Wind Speed 12 mph ()    
Max Wind Speed 16 mph    
Max Gust Speed -    
Visibility 4.5 miles    
Events Rain    
Averages and records for this station are not official NWS values.
T = Trace of Precipitation, MM = Missing Value Source: Averaged Metar Reports

Daily Weather History Graph

Daily Weather History Graph

Search for Another Location

Airport or City:

Trip Planner

Search our weather history database for the weather conditions in past years. The results will help you decide how hot, cold, wet, or windy it might be!

Date:

Astronomy

Nov. 07, 2012 Rise Set
Actual Time 7:43 AM CET 5:07 PM CET
Civil Twilight 7:08 AM CET 5:42 PM CET
Nautical Twilight 6:29 AM CET 6:21 PM CET
Astronomical Twilight 5:51 AM CET 6:59 PM CET
Moon No Moon Rise 1:48 PM CET (11/7)
Length of Visible Light 10h 33m
Length of Day
9h 23m
Last Quarter, 46% of the Moon is Illuminated
Nov 7
Last Quarter
Nov 13
New
Nov 20
First Quarter
Nov 28
Full
Dec 6
Last Quarter

Hourly Weather History & Observations

Time (CET) Temp. Windchill Dew Point Humidity Pressure Visibility Wind Dir Wind Speed Gust Speed Precip Events Conditions
12:20 AM 42.8 °F 35.8 °F 42.8 °F 100% 30.15 in 2.2 mi WSW 13.8 mph - N/A Rain Light Rain
12:50 AM 44.6 °F 38.1 °F 42.8 °F 93% 30.15 in 1.7 mi WSW 13.8 mph - N/A Rain Light Rain
1:00 AM 44 °F - 42 °F 92% 30.19 in 2 mi WSW 13.4 mph - - Rain Light Rain
1:20 AM 44.6 °F 38.1 °F 42.8 °F 93% 30.18 in 1.7 mi WSW 13.8 mph - N/A Rain Light Rain
1:50 AM 44.6 °F 38.4 °F 42.8 °F 93% 30.18 in 1.7 mi WSW 12.7 mph - N/A Rain Light Rain
2:20 AM 44.6 °F 38.4 °F 42.8 °F 93% 30.18 in 1.7 mi WSW 12.7 mph - N/A Rain Light Rain
2:50 AM 44.6 °F 38.4 °F 42.8 °F 93% 30.18 in 1.7 mi WSW 12.7 mph - N/A Rain Light Rain
3:20 AM 44.6 °F 38.4 °F 44.6 °F 100% 30.18 in - WSW 12.7 mph - N/A Rain Light Rain
3:50 AM 44.6 °F 38.4 °F 44.6 °F 100% 30.18 in - WSW 12.7 mph - N/A Rain Light Rain
4:00 AM 45 °F - 44 °F 96% 30.22 in 2 mi WSW 13.4 mph - - Rain Light Rain
4:20 AM 44.6 °F 38.8 °F 44.6 °F 100% 30.18 in 1.6 mi WSW 11.5 mph - N/A Rain Light Rain
4:50 AM 46.4 °F 41.1 °F 44.6 °F 93% 30.21 in 1.4 mi WSW 11.5 mph - N/A Rain Light Rain
5:20 AM 46.4 °F 41.9 °F 44.6 °F 93% 30.21 in 1.4 mi WSW 9.2 mph - N/A Rain Light Rain
5:50 AM 46.4 °F 41.5 °F 44.6 °F 93% 30.21 in 1.1 mi WSW 10.4 mph - N/A Rain Light Rain
6:20 AM 46.4 °F 41.9 °F 44.6 °F 93% 30.24 in 1.2 mi West 9.2 mph - N/A   Mostly Cloudy
6:50 AM 46.4 °F 41.9 °F 44.6 °F 93% 30.24 in 1.3 mi West 9.2 mph - N/A   Mostly Cloudy
7:00 AM 46 °F - 45 °F 95% 30.27 in 1 mi West 8.9 mph - - Rain Light Rain
7:20 AM 46.4 °F 41.5 °F 44.6 °F 93% 30.24 in 1.3 mi WSW 10.4 mph - N/A Rain Light Rain
7:50 AM 46.4 °F 41.5 °F 44.6 °F 93% 30.24 in 1.1 mi WSW 10.4 mph - N/A Rain Light Rain
8:20 AM 46.4 °F 41.5 °F 44.6 °F 93% 30.27 in 1.1 mi West 10.4 mph - N/A   Light Drizzle
8:50 AM 46.4 °F 41.9 °F 44.6 °F 93% 30.27 in 1.9 mi WSW 9.2 mph - N/A   Light Drizzle
9:20 AM 46.4 °F 41.5 °F 44.6 °F 93% 30.30 in - WSW 10.4 mph - N/A   Light Drizzle
9:50 AM 46.4 °F 41.1 °F 44.6 °F 93% 30.30 in - WSW 11.5 mph - N/A   Light Drizzle
10:00 AM 47 °F - 45 °F 90% 30.32 in 2 mi WSW 11.2 mph - - Rain Light Drizzle
10:20 AM 46.4 °F 41.5 °F 44.6 °F 93% 30.30 in 3.1 mi WSW 10.4 mph - N/A   Mostly Cloudy
10:50 AM 48.2 °F - 44.6 °F 87% 30.30 in 6.2 mi WSW 11.5 mph - N/A   Scattered Clouds
11:20 AM 50.0 °F - 44.6 °F 82% 30.30 in 6.2 mi WSW 12.7 mph - N/A   Scattered Clouds
11:50 AM 50.0 °F - 42.8 °F 76% 30.30 in 6.2 mi WSW 15.0 mph - N/A   Mostly Cloudy
12:20 PM 50.0 °F - 44.6 °F 82% 30.30 in 6.2 mi WSW 15.0 mph - N/A   Mostly Cloudy
12:50 PM 50.0 °F - 44.6 °F 82% 30.30 in 6.2 mi WSW 15.0 mph - N/A   Mostly Cloudy
1:00 PM 50 °F - 45 °F 75% 30.32 in 7 mi WSW 15.7 mph - -   Partly Cloudy
1:20 PM 50.0 °F - 44.6 °F 82% 30.30 in 6.2 mi WSW 16.1 mph - N/A   Mostly Cloudy
1:50 PM 50.0 °F - 44.6 °F 82% 30.30 in 6.2 mi WSW 16.1 mph - N/A   Mostly Cloudy
2:20 PM 50.0 °F - 44.6 °F 82% 30.30 in 6.2 mi WSW 16.1 mph - N/A   Mostly Cloudy
2:50 PM 50.0 °F - 42.8 °F 76% 30.30 in 6.2 mi WSW 15.0 mph - N/A   Mostly Cloudy
3:20 PM 50.0 °F - 44.6 °F 82% 30.30 in 6.2 mi WSW 12.7 mph - N/A   Mostly Cloudy
3:50 PM 50.0 °F - 44.6 °F 82% 30.27 in 6.2 mi SW 15.0 mph - N/A   Mostly Cloudy
4:00 PM 51 °F - 45 °F 72% 30.30 in 9 mi SW 11.2 mph - -   Mostly Cloudy
4:20 PM 50.0 °F - 44.6 °F 82% 30.27 in 6.2 mi SW 10.4 mph - N/A   Mostly Cloudy
4:50 PM 50.0 °F - 46.4 °F 87% 30.27 in 6.2 mi SW 11.5 mph - N/A   Mostly Cloudy
5:20 PM 50.0 °F - 46.4 °F 87% 30.27 in 6.2 mi SW 12.7 mph - N/A   Mostly Cloudy
5:50 PM 50.0 °F - 46.4 °F 87% 30.27 in 6.2 mi SSW 12.7 mph - N/A   Mostly Cloudy
6:20 PM 48.2 °F - 46.4 °F 93% 30.27 in 6.2 mi SSW 12.7 mph - N/A   Mostly Cloudy
6:50 PM 48.2 °F - 44.6 °F 87% 30.27 in 6.2 mi SW 12.7 mph - N/A   Mostly Cloudy
7:00 PM 49 °F - 45 °F 81% 30.30 in 8 mi SW 11.2 mph - -   Mostly Cloudy
7:20 PM 48.2 °F - 44.6 °F 87% 30.27 in 6.2 mi SW 12.7 mph - N/A   Mostly Cloudy
7:50 PM 48.2 °F - 44.6 °F 87% 30.27 in 6.2 mi SW 10.4 mph - N/A   Mostly Cloudy
8:20 PM 48.2 °F - 44.6 °F 87% 30.27 in 6.2 mi SW 12.7 mph - N/A   Mostly Cloudy
8:50 PM 48.2 °F - 42.8 °F 82% 30.30 in 6.2 mi SW 13.8 mph - N/A   Mostly Cloudy
9:20 PM 48.2 °F - 42.8 °F 82% 30.30 in 6.2 mi WSW 15.0 mph - N/A   Mostly Cloudy
9:50 PM 48.2 °F - 41.0 °F 76% 30.30 in 6.2 mi WSW 16.1 mph - N/A   Mostly Cloudy
10:00 PM 48 °F - 41 °F 69% 30.31 in 9 mi WSW 15.7 mph - -   Mostly Cloudy
10:20 PM 48.2 °F - 41.0 °F 76% 30.27 in 6.2 mi WSW 12.7 mph - N/A   Mostly Cloudy
10:50 PM 48.2 °F - 41.0 °F 76% 30.27 in 6.2 mi SW 13.8 mph - N/A   Mostly Cloudy
11:20 PM 48.2 °F - 41.0 °F 76% 30.27 in 6.2 mi SW 16.1 mph - N/A   Mostly Cloudy
11:50 PM 48.2 °F - 41.0 °F 76% 30.27 in 6.2 mi SW 13.8 mph - N/A   Mostly Cloudy